Fargo, ND

5:01 PM CDT on March 26, 2017 (GMT -0500)
Hector International

Weather History for KFAR - October, 2012

Change the Weather History Date:

Saturday, October 13, 2012

  Actual Average Record
Temperature  
Mean Temperature 52 °F 47 °F  
Max Temperature 65 °F 58 °F 84 °F (1934)
Min Temperature 39 °F 36 °F 17 °F (1979)
Degree Days  
Heating Degree Days 13 18  
Month to date heating degree days 274 202  
Since 1 July heating degree days 504 472  
Cooling Degree Days 0 0  
Month to date cooling degree days 0 0  
Year to date cooling degree days 795 548  
Growing Degree Days 4 (Base 50)    
Moisture  
Dew Point 34 °F    
Average Humidity 51    
Maximum Humidity 70    
Minimum Humidity 31    
Precipitation  
Precipitation 0.00 in 0.08 in 1.50 in (1984)
Month to date precipitation 0.43 1.03  
Year to date precipitation 11.77 19.66  
Snow  
Snow 0.00 in 0.00 in 0.10 in (1997)
Month to date snowfall 1.4 0.1  
Since 1 July snowfall 1.4 0.1  
Since 1 September snowfall 1.4 0.1  
Snow Depth 0.00 in    
Sea Level Pressure  
Sea Level Pressure 29.73 in    
Wind  
Wind Speed 11 mph (SW)    
Max Wind Speed 16 mph    
Max Gust Speed 21 mph    
Visibility 10 miles    
Events      
T = Trace of Precipitation, MM = Missing Value Source: NWS Daily Summary

Daily Weather History Graph

Daily Weather History Graph

Search for Another Location

Airport or City:

Trip Planner

Search our weather history database for the weather conditions in past years. The results will help you decide how hot, cold, wet, or windy it might be!

Date:

Astronomy

Oct. 13, 2012 Rise Set
Actual Time 7:43 AM CDT 6:42 PM CDT
Civil Twilight 7:12 AM CDT 7:13 PM CDT
Nautical Twilight 6:37 AM CDT 7:48 PM CDT
Astronomical Twilight 6:02 AM CDT 8:23 PM CDT
Moon 5:28 AM CDT (10/13) 5:30 PM CDT (10/13)
Length of Visible Light 12h 00m
Length of Day
10h 59m
Waning Crescent, 5% of the Moon is Illuminated
Oct 13
Waning Crescent
Oct 15
New
Oct 21
First Quarter
Oct 29
Full
Nov 6
Last Quarter

Hourly Weather History & Observations

Time (CDT) Temp. Windchill Dew Point Humidity Pressure Visibility Wind Dir Wind Speed Gust Speed Precip Events Conditions
12:53 AM 48.0 °F - 19.0 °F 32% 29.80 in 10.0 mi South 12.7 mph - N/A   Clear
1:53 AM 48.9 °F - 19.9 °F 32% 29.78 in 10.0 mi SSE 11.5 mph - N/A   Clear
2:53 AM 46.9 °F - 24.1 °F 41% 29.78 in 10.0 mi South 9.2 mph - N/A   Clear
3:53 AM 46.0 °F 42.5 °F 28.9 °F 51% 29.74 in 10.0 mi South 6.9 mph - N/A   Clear
4:53 AM 46.9 °F - 35.1 °F 63% 29.70 in 10.0 mi South 10.4 mph - N/A   Clear
5:53 AM 46.9 °F - 36.0 °F 66% 29.73 in 10.0 mi South 11.5 mph - N/A   Clear
6:53 AM 46.0 °F 40.2 °F 36.0 °F 68% 29.70 in 10.0 mi South 12.7 mph - N/A   Clear
7:53 AM 44.1 °F 38.1 °F 36.0 °F 73% 29.71 in 10.0 mi South 11.5 mph - N/A   Clear
8:53 AM 46.9 °F - 36.0 °F 66% 29.71 in 10.0 mi South 9.2 mph - N/A   Clear
9:53 AM 50.0 °F - 37.0 °F 61% 29.71 in 10.0 mi South 12.7 mph - N/A   Clear
10:53 AM 53.1 °F - 37.9 °F 57% 29.70 in 10.0 mi SSW 13.8 mph - N/A   Clear
11:53 AM 55.9 °F - 39.0 °F 53% 29.69 in 10.0 mi SSW 9.2 mph - N/A   Clear
12:53 PM 59.0 °F - 39.0 °F 48% 29.67 in 10.0 mi SSW 9.2 mph - N/A   Clear
1:53 PM 60.1 °F - 39.0 °F 46% 29.65 in 10.0 mi West 6.9 mph - N/A   Clear
2:53 PM 64.0 °F - 39.0 °F 40% 29.67 in 10.0 mi WNW 8.1 mph - N/A   Clear
3:53 PM 64.0 °F - 37.9 °F 38% 29.68 in 10.0 mi NNW 9.2 mph - N/A   Clear
4:53 PM 64.0 °F - 37.9 °F 38% 29.69 in 10.0 mi North 15.0 mph - N/A   Clear
5:53 PM 60.1 °F - 36.0 °F 41% 29.71 in 10.0 mi North 15.0 mph - N/A   Clear
6:53 PM 53.6 °F - 35.6 °F 51% 29.74 in 10.0 mi NNW 11.5 mph - N/A   Clear
7:53 PM 48.9 °F - 33.1 °F 54% 29.79 in 10.0 mi NNW 11.5 mph - N/A   Clear
8:53 PM 46.9 °F - 32.0 °F 56% 29.81 in 10.0 mi North 11.5 mph - N/A   Clear
9:53 PM 44.1 °F 39.5 °F 32.0 °F 63% 29.84 in 10.0 mi NNW 8.1 mph - N/A   Clear
10:53 PM 41.0 °F 35.8 °F 30.9 °F 67% 29.86 in 10.0 mi NNW 8.1 mph - N/A   Clear